Location: Makanda
(37.6176°N, 89.2090°W)
Time: 21:29:30
(UTC+00:00)

Cosmos 2219 - Pass Details

Date: 23 September 2019
Orbit: 834 x 860 km, 71.1° (Epoch: 18 October)

Event Time Altitude Azimuth Distance (km) Brightness Sun altitude
Rises 09:49:11 0° 344° (NNW) 3,421 6.4 -23.4°
Reaches altitude 10° 09:51:48 10° 352° (N) 2,478 5.7 -22.9°
Maximum altitude 09:57:09 41° 62° (ENE) 1,209 4.5 -21.9°
Drops below altitude 10° 10:02:26 10° 132° (SE) 2,449 6.0 -20.9°
Sets 10:04:59 0° 139° (SE) 3,376 6.7 -20.4°
